Location: ??????
(38.2957°N, 23.8174°E)
Time: 12:53:10
(UTC+00:00)

Daily predictions for brighter satellites

Satellite Brightness Start Highest point End
(mag) Time Altitude Azimuth Time Altitude Azimuth Time Altitude Azimuth
Cosmos 1709 Rocket 4.4 18:11:40 10° N 18:17:40 47° E 18:23:41 10° SSE
Spot 2 4.4 18:14:18 10° SSE 18:18:56 68° ENE 18:23:52 10° N
ARGOS Delta rocket 3.6 18:15:59 10° NNE 18:20:33 78° E 18:24:56 10° S
Cosmos 2315 Rocket 4.2 18:14:35 10° SSE 18:20:41 53° E 18:26:46 10° NNE
H-2A R/B 2.6 18:16:34 10° NNE 18:20:48 42° E 18:25:03 10° S
MetOp-A 3.7 18:17:29 10° SSE 18:21:48 72° ENE 18:26:34 10° N
Cosmos 1975 Rocket 3.1 18:19:23 10° S 18:23:47 68° E 18:28:11 10° NNE
Cosmos 1455 3.8 18:22:07 10° NNE 18:24:59 20° ENE 18:27:52 10° SE
Ariane Rocket 4.0 18:26:46 10° SE 18:31:13 31° ENE 18:35:40 10° N
SJ-6B 3.7 18:28:48 10° S 18:32:31 49° W 18:36:20 10° NNW
Tiangong 1.1 18:31:25 10° WNW 18:34:35 77° SSW 18:37:34 11° ESE
OBJECT-B 3.4 18:33:11 10° SW 18:35:14 17° W 18:37:18 10° NW
Cosmos 1954 Rocket 4.1 18:34:13 10° NNW 18:39:26 62° ENE 18:44:34 10° SSE
GEOS 3 Rocket 4.1 18:36:13 10° ESE 18:41:07 49° NE 18:46:02 10° NNW
ATLAS 2AS CENTAUR R/B 2.8 18:35:24 10° NNW 18:42:24 65° NE 18:48:29 12° SE
Cosmos 1544 Rocket 4.1 18:40:35 10° N 18:44:41 40° E 18:48:23 12° SSE
Lacrosse 5 rocket 1.7 18:42:51 10° NW 18:46:39 54° SW 18:50:20 12° SSE
Resurs 1-3 4.3 18:47:38 10° S 18:51:54 53° W 18:56:12 10° NNW
USA 32 4.1 18:46:52 10° S 18:51:59 60° E 18:57:07 10° NNE
Cosmos 1980 Rocket 4.4 18:51:34 10° NNE 18:52:55 11° NE 18:54:16 10° ENE
TSX-5 4.2 18:49:20 10° SSW 18:53:31 85° ESE 18:59:01 10° NNE
Cosmos 1697 Rocket 4.3 18:49:41 10° N 18:53:49 21° NE 18:57:48 10° E
PSLV R/B 4.1 18:53:55 10° N 18:58:05 81° WNW 19:02:15 10° SSW
COSMOS 2406 4.3 18:54:08 12° SSE 18:58:15 25° ESE 19:02:50 10° NE
SPOT 1/Viking Rocket 3.6 18:53:19 11° SSE 18:58:17 70° ENE 19:03:26 10° N
IRS-1A Rocket 4.4 18:53:18 10° SSE 18:59:11 78° ENE 19:05:05 10° N
NOSS 2-1 (E) 4.4 18:57:17 10° NNW 19:02:18 68° ENE 19:07:54 17° SE
Cosmos 1025 Rocket 4.1 19:01:20 10° SSW 19:05:26 45° W 19:09:35 10° N
SL-12 R/B (Aux Motor) 4.2 19:08:11 10° WNW 19:09:50 33° SSW 19:10:12 29° S
SPOT 5 3.8 19:10:32 18° ESE 19:12:41 26° ENE 19:16:18 10° NNE
X-37B 2.6 19:10:54 10° NW 19:13:09 21° N 19:15:24 10° ENE
Cosmos 1833 Rocket 2.7 19:09:03 10° S 19:14:33 62° ESE 19:20:05 10° NNE
Cosmos 1452 Rocket 3.5 19:10:32 10° SSW 19:15:47 89° WNW 19:21:04 10° NNE
Cosmos 1703 3.4 19:16:01 21° SSE 19:18:20 51° E 19:22:05 10° NNE
Terra 3.2 19:17:35 17° ESE 19:19:44 23° ENE 19:23:29 10° NNE
Cosmos 1110 Rocket 4.0 19:16:42 10° S 19:21:52 64° ESE 19:27:07 10° NNE
Delta 2 Rocket 2.9 19:18:55 10° WSW 19:22:11 52° S 19:23:21 33° ESE
RESURS DK-1 3.0 19:19:43 10° N 19:23:40 42° ENE 19:25:28 26° ESE
ERS-1 Rocket 3.8 19:22:34 22° ESE 19:25:05 35° ENE 19:29:38 10° N
Helios 1A Rocket 3.9 19:24:58 24° ESE 19:26:29 32° ENE 19:30:09 10° N
Resurs 01 Rocket 2.5 19:23:44 11° S 19:27:52 45° W 19:32:09 10° NNW
CZ-4B R/B 3.0 19:29:26 10° N 19:31:58 28° WNW 19:34:31 10° SW
Cosmos 2184 Rocket 4.0 19:27:05 10° N 19:33:15 65° E 19:37:07 24° SSE
Cosmos 2228 3.3 19:32:59 10° N 19:37:05 47° E 19:38:27 34° SE
Lacrosse 5 2.6 19:35:29 10° NW 19:40:18 44° SW 19:42:52 24° S
Cosmos 1328 4.1 19:46:39 42° SE 19:47:21 47° E 19:51:12 10° NNE
Cosmos 2082 Rocket 2.5 19:45:37 28° SSE 19:48:13 47° ESE 19:53:39 10° NE
Cosmos 1271 Rocket 4.5 19:47:41 10° NNW 19:51:06 29° W 19:53:48 14° SSW
Cosmos 2360 4.5 19:45:44 10° NNW 19:51:23 57° ENE 19:53:50 33° SE
USA 267 3.6 19:46:56 10° ENE 19:53:02 41° SE 19:58:11 14° SSW
USA 245 3.7 19:52:44 31° S 19:54:36 61° WSW 19:58:11 10° NNW
Meteor 1-21 Rocket 4.2 19:54:31 21° S 19:58:21 87° W 20:04:03 10° N
CARTOSAT-1 4.5 19:56:44 23° SSW 19:59:02 42° W 20:03:09 10° NNW
ARIANE 5 R/B 3.3 19:58:11 36° ESE 19:59:07 40° ENE 20:03:16 10° N
Cosmos 1455 4.3 19:57:20 10° NW 20:00:21 22° W 20:02:58 12° SW
Cosmos 1606 Rocket 3.5 20:01:13 10° N 20:05:31 65° E 20:06:16 53° SE
GP-B 4.4 20:02:36 10° NNE 20:06:09 25° E 20:06:09 25° E
Cosmos 192 4.2 20:04:06 32° SSW 20:06:23 83° ESE 20:11:19 10° NNE
Cosmos 1741 Rocket 4.3 20:02:30 10° NNW 20:07:46 63° WSW 20:09:58 34° S
Molniya-1 4.4 20:04:45 15° SSW 20:08:07 89° ESE 20:19:02 10° NE
SPOT 3 Rocket 4.2 20:05:32 24° SSW 20:08:23 48° W 20:13:26 10° NNW
ATLAS 5 CENTAUR R/B 3.8 20:02:13 10° NW 20:08:29 25° W 20:10:22 18° SW
Tiangong 3.7 20:09:08 10° WSW 20:09:44 12° WSW 20:09:44 12° WSW
Cosmos 2327 Rocket 4.4 20:09:55 10° N 20:16:15 84° E 20:18:42 40° SSE
Nadezhda 1 Rocket 4.3 20:18:42 21° SSW 20:22:50 61° W 20:28:50 10° N
Cosmos 2181 Rocket 4.4 20:22:33 40° ESE 20:23:48 44° E 20:29:38 10° NNE
Cosmos 1892 3.3 20:27:17 45° NE 20:27:17 45° NE 20:30:13 10° NNE
Cosmos 1726 Rocket 3.3 20:23:56 10° N 20:28:16 89° E 20:28:35 77° S
Cosmos 962 Rocket 4.5 20:24:20 10° N 20:30:37 73° E 20:32:29 47° SSE
ATLAS 2AS CENTAUR R/B 4.3 20:27:37 10° WNW 20:32:35 22° WSW 20:35:55 15° SW
Cosmos 1932 4.3 20:29:22 30° SSW 20:32:40 82° ESE 20:38:58 10° NNE
Meteor 2-1 Rocket 4.4 20:28:04 10° NNW 20:33:32 65° W 20:35:17 42° SSW
Cosmos 1992 Rocket 4.1 20:35:13 55° ESE 20:35:23 55° ESE 20:40:30 10° NNE
SL-16 R/B 4.0 20:33:28 10° N 20:37:28 19° NE 20:39:33 16° E
Cosmos 1980 Rocket 2.2 20:32:17 10° NNW 20:37:59 71° ENE 20:39:07 55° SE
Cosmos 1697 Rocket 3.0 20:32:39 10° NNW 20:38:08 56° WSW 20:39:32 44° SSW
SL-8 R/B 3.5 20:36:23 10° WNW 20:41:12 80° SW 20:41:22 79° S
Cosmos 2369 3.6 20:35:41 10° NNW 20:41:27 85° ENE 20:42:35 59° SSE
Cosmos 2344 4.4 20:32:02 10° NNW 20:41:33 83° ENE 20:48:13 34° SE
COSMOS 2406 4.3 20:36:47 10° SW 20:42:15 43° WNW 20:47:44 10° N
ATLAS 5 CENTAUR R/B 2.0 20:48:00 45° NNE 20:48:00 45° NNE 20:50:52 10° NNE
X-37B 3.2 20:46:11 10° WNW 20:47:01 17° NW 20:47:01 17° NW
In-Cosmos 22 Rocket 4.0 20:48:38 65° SSE 20:49:24 77° E 20:54:53 10° NNE
SPOT 5 4.3 20:49:45 22° WSW 20:50:43 24° W 20:54:14 10° NW
Terra 2.9 20:56:28 31° WSW 20:57:16 34° W 21:01:35 10° NNW
Meteor 1-27 4.2 20:54:17 10° N 20:59:48 64° E 21:00:16 61° ESE
Cosmos 1869 4.4 20:56:56 10° N 20:59:42 39° NNE 20:59:42 39° NNE
Cosmos 2084 Rocket 4.1 20:57:01 10° NW 21:00:03 46° WNW 21:00:03 46° WNW
ADEOS Rocket 4.4 20:58:46 28° E 21:01:22 35° ENE 21:08:07 10° N
ALOS 2 4.4 21:02:25 21° ENE 21:02:25 21° ENE 21:05:28 10° NNE
ASTEX 1 3.6 21:00:49 10° N 21:05:46 63° W 21:06:20 58° WSW
SL-8 Rocket 3.9 21:01:02 10° N 21:07:15 82° W 21:08:23 62° S
Cosmos 2322 Rocket 3.7 21:08:29 10° N 21:13:13 26° ENE 21:14:37 24° E
Cosmos 1825 3.4 21:15:03 40° NNW 21:15:03 40° NNW 21:17:37 10° N
Cosmos 2058 Rocket 3.8 21:11:20 10° NNW 21:15:19 45° W 21:15:19 45° W
Cosmos 1626 Rocket 4.0 21:17:38 60° NNW 21:17:38 60° NNW 21:21:18 10° N
Cosmos 2278 3.5 21:18:26 10° NNW 21:24:10 83° WSW 21:24:23 81° SSW
Cosmos 2366 rocket 4.0 21:20:01 10° NNW 21:26:19 70° W 21:27:20 60° SW
Cosmos 968 Rocket 4.4 21:21:45 10° NW 21:26:33 38° WSW 21:26:36 38° WSW
Cosmos 2218 Rocket 4.1 21:23:27 10° NNW 21:29:48 66° W 21:30:49 57° SW
Meteor 2-20 4.3 21:29:48 72° SE 21:30:09 74° E 21:36:14 10° N
Cosmos 2082 Rocket 4.2 21:27:54 10° WSW 21:32:31 25° NW 21:37:07 10° N
SJ 16-02 2.7 21:32:00 10° N 21:35:23 33° NE 21:35:23 33° NE
USA 267 3.8 21:29:46 10° NE 21:36:06 55° NW 21:42:25 10° WSW
Cosmos 1867 4.0 21:31:41 10° NW 21:36:30 49° W 21:36:30 49° W
Spot 4 4.2 21:48:33 61° NW 21:48:33 61° NW 21:52:36 10° NNW
Cosmos 2058 4.3 21:50:01 34° NNE 21:50:01 34° NNE 21:52:33 10° NNE
Cosmos 2360 Rocket 3.4 21:44:11 10° N 21:49:15 32° ENE 21:50:16 30° E
SL-08 R/B 4.4 21:46:11 10° N 21:52:40 87° W 21:53:14 77° S
Cosmos 1606 4.4 21:51:13 10° N 21:53:24 31° N 21:53:24 31° N
Meteor 2-20 Rocket 4.3 21:58:19 84° S 21:58:32 89° E 22:04:41 10° N
Cosmos 2237 4.3 21:59:09 10° NNW 22:04:51 66° ENE 22:04:54 66° ENE
USA 234 3.7 22:04:42 33° E 22:07:33 58° NE 22:13:57 10° NW
Cosmos 1821 Rocket 4.3 22:15:11 10° NNW 22:21:11 52° W 22:21:23 52° W
Cosmos 1980 Rocket 4.3 22:18:24 10° WNW 22:20:52 14° W 22:20:52 14° W
SL-4 R/B 4.1 22:23:23 21° NNE 22:23:23 21° NNE 22:25:08 10° NNE
SL-16 R/B 2.5 22:16:25 10° NNW 22:21:23 58° WNW 22:21:23 58° WNW
Cosmos 2219 Rocket 3.7 22:21:30 10° N 22:26:20 28° ENE 22:28:08 24° E
Cosmos 1605 Rocket 4.1 22:31:29 10° N 22:37:50 63° E 22:38:25 60° ESE
ALOS 2 4.4 22:39:48 25° WNW 22:39:48 25° WNW 22:42:13 10° NNW
ERS-2 4.3 22:36:00 10° N 22:37:41 24° NNW 22:37:41 24° NNW
Meteor 2-11 Rocket 4.3 22:37:17 10° N 22:43:26 86° W 22:43:30 86° WSW
ADEOS Rocket 3.9 22:45:43 45° WSW 22:46:30 46° W 22:53:49 10° NNW
NOSS 3-2 (A) 3.6 22:54:56 50° E 22:54:56 50° E 23:00:00 10° NE
Cosmos 972 Rocket 4.2 22:49:49 10° NNW 22:54:40 71° WNW 22:54:40 71° WNW
Cosmos 540 Rocket 4.3 22:55:58 40° ENE 22:55:58 40° ENE 23:00:02 10° NNE
Cosmos 2322 Rocket 3.0 22:52:03 10° NW 22:56:24 39° WNW 22:56:24 39° WNW
ISS -0.9 23:01:42 17° NNE 23:01:42 17° NNE 23:02:45 10° NE
Cosmos 2285 Rocket 4.0 23:08:13 69° SE 23:08:39 71° ESE 23:15:04 10° NNE
CENTAUR R/B 2.4 23:09:34 66° ESE 23:09:34 66° ESE 23:16:00 10° NE
Cosmos 2333 Rocket 2.1 23:07:06 10° NNW 23:12:51 89° NW 23:12:51 89° NW
Cosmos 2151 3.9 23:14:58 47° N 23:14:58 47° N 23:18:06 10° N
SJ 16-02 3.8 23:11:19 10° NW 23:12:19 14° WNW 23:12:19 14° WNW
Cosmos 1898 Rocket 4.1 23:14:52 10° N 23:19:54 49° ENE 23:20:28 47° E
Meteor 2-3 Rocket 3.8 23:20:57 62° WNW 23:20:57 62° WNW 23:26:27 10° N
Cosmos 1812 4.2 23:24:23 10° N 23:26:44 36° N 23:26:44 36° N
Cosmos 1937 Rocket 4.4 23:23:19 10° N 23:28:17 42° ENE 23:29:31 36° E
Cosmos 2221 4.3 23:25:58 10° NNW 23:28:17 24° NW 23:28:17 24° NW
Cosmos 2227 Rocket 3.8 23:29:43 22° ESE 23:30:24 22° E 23:34:41 10° NE
Cosmos 1153 Rocket 4.3 23:26:17 10° N 23:32:37 79° W 23:33:16 71° SSW
Cosmos 1862 4.5 23:34:11 41° NE 23:34:11 41° NE 23:36:55 10° NNE
Cosmos 2360 Rocket 3.3 23:28:09 10° NW 23:32:00 31° W 23:32:00 31° W
Resurs 1-4 Rocket 2.6 23:32:29 10° NNE 23:37:37 46° E 23:38:01 46° ESE
Cosmos 1782 4.2 23:34:53 10° NNW 23:37:13 32° NNW 23:37:13 32° NNW
NOSS 3-2 (C) 3.2 23:41:34 65° SE 23:41:43 65° ESE 23:47:41 10° NE
CZ-2D R/B 2.4 23:41:06 10° NNE 23:46:13 54° E 23:46:40 52° ESE
COSMOS 2455 4.4 23:42:20 10° N 23:47:41 32° NE 23:53:00 10° ESE
Cosmos 1766 Rocket 4.4 23:49:17 41° E 23:49:17 41° E 23:53:15 10° NNE
USA 234 4.0 23:52:01 35° W 23:52:01 35° W 23:56:43 10° WNW
Cosmos 1727 Rocket 4.4 23:51:12 46° WSW 23:52:03 49° WNW 23:58:08 10° N
SL-16 R/B 3.3 23:49:37 23° SE 23:53:13 48° ENE 23:59:10 10° N
